Location: Newark
(52.3735°N, 16.9806°E)
Time: 08:01:44
(UTC+00:00)

X-37B - Pass Details

Date: 02 October 2021
Orbit: 385 x 389 km, 45.0° (Epoch: 13 October)

Event Time Altitude Azimuth Distance (km) Brightness Sun altitude
Exits shadow 03:20:32 14° 192° (SSW) 1,186 2.8 -15.1°
Drops below altitude 10° 03:22:03 10° 164° (SSE) 1,411 3.4 -14.9°
Sets 03:24:46 0° 139° (SE) 2,263 4.9 -14.5°
